Location: Newark
(12.4436°N, 0.6167°W)
Time: 04:03:22
(UTC+00:00)

Vanguard 2 - Pass Details

Date: 16 December 2019
Orbit: 553 x 2938 km, 32.9° (Epoch: 17 January)

Event Time Altitude Azimuth Distance (km) Brightness Sun altitude
Rises 18:57:15 0° 193° (SSW) 3,206 11.2 -18.3°
Reaches altitude 10° 19:00:22 10° 170° (S) 2,563 10.3 -19.0°
Maximum altitude 19:04:07 16° 132° (SE) 2,495 9.9 -19.9°
Enters shadow 19:05:39 15° 118° (ESE) 2,707 9.9 -20.2°
Drops below altitude 10° 19:08:54 10° 97° (E) 3,445 - -21.0°
Sets 19:14:10 0° 79° (E) 4,973 - -22.2°
